Location: Byszew
(52.1813°N, 19.2693°E)
Time: 19:14:22
(UTC+00:00)

Cosmos 1339 Rocket - Pass Details

Date: 03 March 2021
Orbit: 943 x 1005 km, 82.9° (Epoch: 17 April)

Event Time Altitude Azimuth Distance (km) Brightness Sun altitude
Rises 18:16:40 0° 349° (N) 3,648 7.8 -17.6°
Reaches altitude 10° 18:19:09 10° 349° (N) 2,706 7.1 -18.0°
Maximum altitude 18:25:22 87° 263° (W) 980 4.5 -18.9°
Drops below altitude 10° 18:31:38 10° 174° (S) 2,731 6.6 -19.9°
Sets 18:34:10 0° 174° (S) 3,684 7.3 -20.2°
